Location: Ash Swamp
(41.5170°N, 74.6157°W)
Time: 02:47:53
(UTC+00:00)

Cosmos 1400 Rocket - Pass Details

Date: 14 July 2020
Orbit: 520 x 569 km, 81.2° (Epoch: 14 August)

Event Time Altitude Azimuth Distance (km) Brightness Sun altitude
Rises 01:08:45 0° 348° (NNW) 2,689 7.2 -6.6°
Reaches altitude 10° 01:10:55 10° 347° (NNW) 1,786 6.3 -6.9°
Maximum altitude 01:14:50 73° 263° (W) 553 3.0 -7.5°
Drops below altitude 10° 01:18:40 10° 178° (S) 1,753 5.0 -8.1°
Enters shadow 01:20:31 - 176° (S) 2,522 5.8 -8.4°
